Location: ???????
(52.3000°N, 54.4667°E)
Time: 16:59:10
(UTC+00:00)

STARLINK-1083 - Pass Details

Date: 24 January 2020
Orbit: 348 x 351 km, 53.0° (Epoch: 26 February)

Event Time Altitude Azimuth Distance (km) Brightness Sun altitude
Rises 14:02:10 0° 262° (W) 2,176 8.7 -10.4°
Reaches altitude 10° 14:04:12 10° 263° (W) 1,332 7.1 -10.7°
Maximum altitude 14:07:10 82° 349° (N) 365 2.7 -11.1°
Enters shadow 14:09:04 20° 79° (ENE) 897 4.1 -11.4°
